RUK2HK EGPF-EGSS

Flight info

Callsign RUK2HK
Flight time 1h 1m
Altitude 33000
Route NORBO T256 RIPNO DCT AKOMU DCT VAMEB UL612 LISTO
Aircraft B738/M-SDE2E3FGHIRWXY/LB1

Departure

Time 2026-05-06 20:13
Airport Glasgow Airport (EGPF)

Arrival

Time 2026-05-06 21:14
Airport London Stansted Airport (EGSS)
Time Latitude Longitude Altitude Speed Heading
2026-05-06 19:37 55.86671 -4.43024 28 ft 0 kts 255°
2026-05-06 20:06 55.86675 -4.42985 28 ft 4 kts 269°
2026-05-06 20:06 55.86670 -4.42942 28 ft 4 kts 311°
2026-05-06 20:06 55.86658 -4.42926 28 ft 0 kts 343°
2026-05-06 20:09 55.86672 -4.42933 28 ft 5 kts 343°
2026-05-06 20:09 55.86729 -4.42963 28 ft 12 kts 344°
2026-05-06 20:09 55.86818 -4.42996 28 ft 13 kts
2026-05-06 20:09 55.86913 -4.42926 28 ft 17 kts 26°
2026-05-06 20:10 55.87025 -4.42835 28 ft 18 kts 21°
2026-05-06 20:10 55.87139 -4.42762 28 ft 17 kts 20°
2026-05-06 20:10 55.87246 -4.42685 28 ft 16 kts 20°
2026-05-06 20:10 55.87352 -4.42618 28 ft 16 kts 19°
2026-05-06 20:11 55.87437 -4.42503 28 ft 16 kts 46°
2026-05-06 20:11 55.87522 -4.42343 28 ft 20 kts 46°
2026-05-06 20:11 55.87622 -4.42156 28 ft 21 kts 46°
2026-05-06 20:11 55.87709 -4.41994 28 ft 15 kts 46°
2026-05-06 20:12 55.87779 -4.41880 28 ft 13 kts 31°
2026-05-06 20:12 55.87868 -4.41854 28 ft 13 kts 355°
2026-05-06 20:12 55.87933 -4.41929 28 ft 7 kts 294°
2026-05-06 20:12 55.87923 -4.41971 28 ft 3 kts 227°
2026-05-06 20:13 55.87899 -4.42015 28 ft 14 kts 226°
2026-05-06 20:13 55.87660 -4.42461 28 ft 87 kts 226°
2026-05-06 20:13 55.87089 -4.43531 30 ft 149 kts 225°
2026-05-06 20:13 55.86349 -4.44917 643 ft 152 kts 226°
2026-05-06 20:14 55.85616 -4.46254 1461 ft 153 kts 226°
2026-05-06 20:14 55.84863 -4.47688 2044 ft 172 kts 226°
2026-05-06 20:14 55.83979 -4.49380 2477 ft 196 kts 225°
2026-05-06 20:14 55.83024 -4.51214 2992 ft 210 kts 225°
2026-05-06 20:15 55.82006 -4.53156 3636 ft 223 kts 223°
2026-05-06 20:15 55.80827 -4.55184 4091 ft 243 kts 221°
2026-05-06 20:15 55.79570 -4.57267 4880 ft 250 kts 221°
2026-05-06 20:15 55.78287 -4.59387 5757 ft 254 kts 222°
2026-05-06 20:16 55.76978 -4.61525 6624 ft 258 kts 219°
2026-05-06 20:16 55.75348 -4.62803 7401 ft 263 kts 185°
2026-05-06 20:16 55.73540 -4.62267 8287 ft 268 kts 161°
2026-05-06 20:16 55.71819 -4.60908 9089 ft 274 kts 156°
2026-05-06 20:17 55.70102 -4.59366 9903 ft 279 kts 155°
2026-05-06 20:17 55.68348 -4.57756 10415 ft 294 kts 154°
2026-05-06 20:17 55.66451 -4.56024 10604 ft 319 kts 155°
2026-05-06 20:17 55.64428 -4.54189 11073 ft 332 kts 155°
2026-05-06 20:18 55.62352 -4.52318 11781 ft 337 kts 155°
2026-05-06 20:18 55.60249 -4.50437 12579 ft 341 kts 156°
2026-05-06 20:18 55.58110 -4.48536 13355 ft 347 kts 156°
2026-05-06 20:18 55.55983 -4.46435 14089 ft 354 kts 151°
2026-05-06 20:19 55.53895 -4.44082 14853 ft 358 kts 149°
2026-05-06 20:19 55.51811 -4.41640 15625 ft 362 kts 149°
2026-05-06 20:19 55.49693 -4.39146 16366 ft 368 kts 149°
2026-05-06 20:19 55.47549 -4.36635 17096 ft 373 kts 149°
2026-05-06 20:20 55.46110 -4.34962 17573 ft 376 kts 149°
2026-05-06 20:20 55.43194 -4.31597 18488 ft 382 kts 149°
2026-05-06 20:20 55.41674 -4.29853 18917 ft 385 kts 150°
2026-05-06 20:20 55.39410 -4.27267 19531 ft 390 kts 150°
2026-05-06 20:21 55.37118 -4.24657 20139 ft 395 kts 150°
2026-05-06 20:21 55.34793 -4.22016 20726 ft 400 kts 150°
2026-05-06 20:21 55.32438 -4.19348 21329 ft 405 kts 150°
2026-05-06 20:21 55.30057 -4.16653 21913 ft 410 kts 150°
2026-05-06 20:22 55.27642 -4.13925 22493 ft 415 kts 150°
2026-05-06 20:22 55.25200 -4.11171 23044 ft 420 kts 150°
2026-05-06 20:22 55.22729 -4.08388 23602 ft 425 kts 150°
2026-05-06 20:22 55.20230 -4.05576 24088 ft 428 kts 150°
2026-05-06 20:23 55.17718 -4.02754 24570 ft 431 kts 150°
2026-05-06 20:23 55.15183 -3.99908 25043 ft 434 kts 150°
2026-05-06 20:23 55.12628 -3.97045 25520 ft 437 kts 149°
2026-05-06 20:23 55.10056 -3.94169 25985 ft 441 kts 149°
2026-05-06 20:24 55.07465 -3.91277 26445 ft 444 kts 149°
2026-05-06 20:24 55.04852 -3.88365 26899 ft 447 kts 149°
2026-05-06 20:24 55.02220 -3.85437 27340 ft 450 kts 149°
2026-05-06 20:24 54.99573 -3.82496 27776 ft 453 kts 149°
2026-05-06 20:25 54.96904 -3.79536 28182 ft 457 kts 149°
2026-05-06 20:25 54.94244 -3.76591 28529 ft 461 kts 148°
2026-05-06 20:25 54.91534 -3.73593 28985 ft 463 kts 148°
2026-05-06 20:25 54.88813 -3.70587 29416 ft 465 kts 148°
2026-05-06 20:26 54.86073 -3.67565 29800 ft 468 kts 148°
2026-05-06 20:26 54.83325 -3.64541 30219 ft 468 kts 148°
2026-05-06 20:26 54.80572 -3.61519 30682 ft 467 kts 148°
2026-05-06 20:26 54.77827 -3.58509 31109 ft 467 kts 148°
2026-05-06 20:27 54.75079 -3.55500 31487 ft 468 kts 147°
2026-05-06 20:27 54.72326 -3.52491 31856 ft 469 kts 147°
2026-05-06 20:27 54.69570 -3.49484 32245 ft 469 kts 147°
2026-05-06 20:27 54.66816 -3.46484 32730 ft 466 kts 147°
2026-05-06 20:28 54.64069 -3.43494 33033 ft 469 kts 146°
2026-05-06 20:28 54.61263 -3.40558 33016 ft 474 kts 149°
2026-05-06 20:28 54.55463 -3.35270 33013 ft 467 kts 152°
2026-05-06 20:29 54.49682 -3.30236 33009 ft 466 kts 152°
2026-05-06 20:29 54.43905 -3.25134 33015 ft 467 kts 151°
2026-05-06 20:30 54.35247 -3.17397 33023 ft 468 kts 151°
2026-05-06 20:31 54.29478 -3.12250 33014 ft 467 kts 151°
2026-05-06 20:31 54.23714 -3.07129 33023 ft 467 kts 151°
2026-05-06 20:32 54.17956 -3.02030 33014 ft 465 kts 151°
2026-05-06 20:32 54.12221 -2.96967 33009 ft 463 kts 151°
2026-05-06 20:33 54.06507 -2.91938 33022 ft 461 kts 151°
2026-05-06 20:33 54.00812 -2.86942 33018 ft 460 kts 151°
2026-05-06 20:34 53.95123 -2.81965 33014 ft 460 kts 151°
2026-05-06 20:34 53.89444 -2.77014 33017 ft 459 kts 151°
2026-05-06 20:35 53.83761 -2.72074 33018 ft 459 kts 151°
2026-05-06 20:35 53.78083 -2.67153 33025 ft 458 kts 151°
2026-05-06 20:36 53.72404 -2.62245 33029 ft 459 kts 151°
2026-05-06 20:36 53.66724 -2.57351 33024 ft 458 kts 152°
2026-05-06 20:37 53.61016 -2.52573 33029 ft 458 kts 155°
2026-05-06 20:37 53.55151 -2.48455 33032 ft 456 kts 157°
2026-05-06 20:38 53.49287 -2.44394 33030 ft 455 kts 156°
2026-05-06 20:38 53.43459 -2.40276 33049 ft 454 kts 156°
2026-05-06 20:39 53.37630 -2.36173 33052 ft 454 kts 156°
2026-05-06 20:39 53.31801 -2.32085 33049 ft 454 kts 156°
2026-05-06 20:40 53.25970 -2.28006 33044 ft 455 kts 156°
2026-05-06 20:40 53.20129 -2.23935 33056 ft 455 kts 156°
2026-05-06 20:41 53.14340 -2.19862 33046 ft 454 kts 153°
2026-05-06 20:41 53.09100 -2.13966 33046 ft 452 kts 141°
2026-05-06 20:42 53.04141 -2.07641 32689 ft 452 kts 141°
2026-05-06 20:42 53.01642 -2.04508 32424 ft 447 kts 142°
2026-05-06 20:42 52.99163 -2.01453 32165 ft 442 kts 142°
2026-05-06 20:42 52.96707 -1.98461 31888 ft 437 kts 143°
2026-05-06 20:43 52.94263 -1.95504 31492 ft 432 kts 143°
2026-05-06 20:43 52.91843 -1.92586 31075 ft 429 kts 143°
2026-05-06 20:43 52.89439 -1.89691 30655 ft 426 kts 143°
2026-05-06 20:43 52.87053 -1.86819 30235 ft 423 kts 143°
2026-05-06 20:44 52.84684 -1.83970 29761 ft 420 kts 143°
2026-05-06 20:44 52.82329 -1.81140 29310 ft 416 kts 143°
2026-05-06 20:44 52.79999 -1.78343 28867 ft 412 kts 143°
2026-05-06 20:44 52.77693 -1.75579 28444 ft 408 kts 143°
2026-05-06 20:45 52.75408 -1.72846 28003 ft 404 kts 144°
2026-05-06 20:45 52.73075 -1.70292 27535 ft 401 kts 150°
2026-05-06 20:45 52.70637 -1.68107 27099 ft 397 kts 153°
2026-05-06 20:45 52.68177 -1.66071 26679 ft 394 kts 154°
2026-05-06 20:46 52.65731 -1.64078 26263 ft 391 kts 154°
2026-05-06 20:46 52.63304 -1.62080 25853 ft 388 kts 154°
2026-05-06 20:46 52.60904 -1.60076 25450 ft 386 kts 154°
2026-05-06 20:46 52.58523 -1.58064 25046 ft 383 kts 154°
2026-05-06 20:47 52.56159 -1.56053 24649 ft 381 kts 154°
2026-05-06 20:47 52.53813 -1.54051 24250 ft 379 kts 154°
2026-05-06 20:47 52.51508 -1.52083 23861 ft 377 kts 154°
2026-05-06 20:47 52.49186 -1.50102 23484 ft 375 kts 154°
2026-05-06 20:48 52.46875 -1.48133 23031 ft 373 kts 154°
2026-05-06 20:48 52.44577 -1.46177 22605 ft 371 kts 154°
2026-05-06 20:48 52.42296 -1.44238 22214 ft 367 kts 154°
2026-05-06 20:48 52.40035 -1.42319 21815 ft 365 kts 154°
2026-05-06 20:49 52.37791 -1.40415 21420 ft 362 kts 154°
2026-05-06 20:49 52.35561 -1.38526 21029 ft 360 kts 154°
2026-05-06 20:49 52.33347 -1.36652 20647 ft 357 kts 154°
2026-05-06 20:49 52.31145 -1.34792 20265 ft 355 kts 154°
2026-05-06 20:50 52.28932 -1.32912 19881 ft 353 kts 153°
2026-05-06 20:50 52.26817 -1.30972 19542 ft 353 kts 151°
2026-05-06 20:50 52.24698 -1.28952 19200 ft 352 kts 150°
2026-05-06 20:50 52.22587 -1.26927 18853 ft 352 kts 150°
2026-05-06 20:51 52.20468 -1.24904 18511 ft 353 kts 150°
2026-05-06 20:51 52.18345 -1.22889 18131 ft 353 kts 150°
2026-05-06 20:51 52.16432 -1.20431 17809 ft 352 kts 129°
2026-05-06 20:51 52.15292 -1.16967 17544 ft 348 kts 105°
2026-05-06 20:52 52.14797 -1.13125 17305 ft 347 kts 101°
2026-05-06 20:52 52.14332 -1.09258 17039 ft 349 kts 101°
2026-05-06 20:52 52.13858 -1.05385 16770 ft 348 kts 101°
2026-05-06 20:52 52.13380 -1.01536 16504 ft 346 kts 101°
2026-05-06 20:53 52.12896 -0.97709 16242 ft 345 kts 101°
2026-05-06 20:53 52.12409 -0.93897 15971 ft 343 kts 101°
2026-05-06 20:53 52.11919 -0.90098 15719 ft 342 kts 101°
2026-05-06 20:53 52.11427 -0.86309 15466 ft 342 kts 101°
2026-05-06 20:54 52.10936 -0.82538 15215 ft 341 kts 101°
2026-05-06 20:54 52.10443 -0.78772 14966 ft 340 kts 101°
2026-05-06 20:54 52.09951 -0.75018 14720 ft 339 kts 101°
2026-05-06 20:54 52.09458 -0.71274 14471 ft 338 kts 101°
2026-05-06 20:55 52.08965 -0.67535 14231 ft 337 kts 101°
2026-05-06 20:55 52.08473 -0.63813 13990 ft 337 kts 101°
2026-05-06 20:55 52.07980 -0.60097 13740 ft 336 kts 101°
2026-05-06 20:55 52.07488 -0.56399 13465 ft 334 kts 101°
2026-05-06 20:56 52.06997 -0.52713 13198 ft 333 kts 101°
2026-05-06 20:56 52.06507 -0.49044 12933 ft 332 kts 101°
2026-05-06 20:56 52.06017 -0.45388 12668 ft 330 kts 101°
2026-05-06 20:56 52.05528 -0.41752 12409 ft 329 kts 101°
2026-05-06 20:57 52.05041 -0.38131 12146 ft 328 kts 101°
2026-05-06 20:57 52.04535 -0.34525 11882 ft 327 kts 105°
2026-05-06 20:57 52.03507 -0.31259 11605 ft 327 kts 129°
2026-05-06 20:57 52.01797 -0.28868 11402 ft 325 kts 147°
2026-05-06 20:58 51.99881 -0.26969 11261 ft 317 kts 150°
2026-05-06 20:58 51.98023 -0.25227 11094 ft 301 kts 150°
2026-05-06 20:58 51.96211 -0.23545 10724 ft 300 kts 150°
2026-05-06 20:58 51.94401 -0.21875 10437 ft 299 kts 150°
2026-05-06 20:59 51.92599 -0.20219 10144 ft 297 kts 150°
2026-05-06 20:59 51.90806 -0.18577 9829 ft 296 kts 150°
2026-05-06 20:59 51.89022 -0.16946 9519 ft 294 kts 151°
2026-05-06 20:59 51.87250 -0.15331 9235 ft 291 kts 151°
2026-05-06 21:00 51.85505 -0.13740 9038 ft 285 kts 151°
2026-05-06 21:00 51.83802 -0.12191 8759 ft 277 kts 150°
2026-05-06 21:00 51.82141 -0.10682 8409 ft 270 kts 150°
2026-05-06 21:00 51.80509 -0.09203 7947 ft 269 kts 150°
2026-05-06 21:01 51.78869 -0.07745 7438 ft 269 kts 154°
2026-05-06 21:01 51.77100 -0.06946 7004 ft 266 kts 168°
2026-05-06 21:01 51.75485 -0.05682 6694 ft 258 kts 136°
2026-05-06 21:01 51.74607 -0.03216 6180 ft 255 kts 99°
2026-05-06 21:02 51.74658 -0.00434 5712 ft 246 kts 81°
2026-05-06 21:02 51.74933 0.02267 4966 ft 250 kts 76°
2026-05-06 21:02 51.75756 0.04715 4154 ft 253 kts 43°
2026-05-06 21:02 51.77147 0.06441 3495 ft 251 kts 37°
2026-05-06 21:03 51.78418 0.08242 3247 ft 233 kts 43°
2026-05-06 21:03 51.79533 0.09964 3112 ft 211 kts 43°
2026-05-06 21:03 51.80555 0.11519 2828 ft 198 kts 43°
2026-05-06 21:03 51.81556 0.13023 2477 ft 191 kts 43°
2026-05-06 21:04 51.82529 0.14471 2892 ft 194 kts 44°
2026-05-06 21:04 51.83496 0.15951 2988 ft 191 kts 44°
2026-05-06 21:04 51.84442 0.17432 2946 ft 186 kts 44°
2026-05-06 21:04 51.85383 0.18832 2925 ft 180 kts 39°
2026-05-06 21:05 51.86517 0.19454 2913 ft 176 kts 353°
2026-05-06 21:05 51.87648 0.18741 2988 ft 181 kts 337°
2026-05-06 21:05 51.88889 0.17813 3037 ft 207 kts 337°
2026-05-06 21:05 51.90217 0.16819 3021 ft 213 kts 337°
2026-05-06 21:06 51.91110 0.16157 3029 ft 213 kts 337°
2026-05-06 21:06 51.92479 0.15142 3028 ft 213 kts 337°
2026-05-06 21:06 51.93825 0.14136 3029 ft 213 kts 337°
2026-05-06 21:06 51.95148 0.13136 3033 ft 214 kts 337°
2026-05-06 21:07 51.96434 0.11826 3026 ft 225 kts 314°
2026-05-06 21:07 51.97152 0.09562 3034 ft 233 kts 281°
2026-05-06 21:07 51.97006 0.06959 3027 ft 236 kts 248°
2026-05-06 21:07 51.96059 0.04825 3031 ft 235 kts 224°
2026-05-06 21:08 51.94859 0.03019 3025 ft 235 kts 221°
2026-05-06 21:08 51.93590 0.01351 3011 ft 235 kts 208°
2026-05-06 21:08 51.92094 0.00320 3034 ft 234 kts 200°
2026-05-06 21:08 51.90579 -0.00647 3022 ft 235 kts 201°
2026-05-06 21:09 51.89038 -0.01537 2997 ft 236 kts 190°
2026-05-06 21:09 51.87415 -0.01523 3027 ft 233 kts 172°
2026-05-06 21:09 51.85830 -0.01196 3027 ft 218 kts 171°
2026-05-06 21:09 51.84456 -0.00465 2923 ft 202 kts 142°
2026-05-06 21:10 51.83388 0.00873 2821 ft 190 kts 140°
2026-05-06 21:10 51.82384 0.02116 2737 ft 178 kts 140°
2026-05-06 21:10 51.81444 0.03301 2615 ft 166 kts 132°
2026-05-06 21:10 51.80895 0.04904 2567 ft 164 kts 110°
2026-05-06 21:11 51.80449 0.06620 2522 ft 166 kts 110°
2026-05-06 21:11 51.79990 0.08333 2528 ft 167 kts 110°
2026-05-06 21:11 51.79825 0.10133 2479 ft 163 kts 69°
2026-05-06 21:11 51.80524 0.11485 2379 ft 160 kts 38°
2026-05-06 21:12 51.81362 0.12709 2157 ft 163 kts 44°
2026-05-06 21:12 51.82185 0.13970 1921 ft 162 kts 44°
2026-05-06 21:12 51.82999 0.15199 1709 ft 158 kts 43°
2026-05-06 21:12 51.83782 0.16379 1512 ft 149 kts 43°
2026-05-06 21:13 51.84513 0.17479 1279 ft 140 kts 42°
2026-05-06 21:13 51.85224 0.18551 1074 ft 142 kts 42°
2026-05-06 21:13 51.85941 0.19637 855 ft 139 kts 42°
2026-05-06 21:13 51.86651 0.20711 670 ft 143 kts 40°
2026-05-06 21:14 51.87389 0.21818 473 ft 145 kts 41°
2026-05-06 21:14 51.88123 0.22913 344 ft 134 kts 43°
2026-05-06 21:14 51.88655 0.23713 343 ft 81 kts 43°
2026-05-06 21:14 51.88959 0.24174 356 ft 49 kts 44°
2026-05-06 21:15 51.89099 0.24535 351 ft 28 kts 68°
2026-05-06 21:15 51.89153 0.24748 356 ft 12 kts 67°
2026-05-06 21:15 51.89165 0.24870 348 ft 11 kts 121°
2026-05-06 21:15 51.89181 0.24984 351 ft 13 kts 44°
2026-05-06 21:16 51.89241 0.25136 351 ft 17 kts 86°
2026-05-06 21:16 51.89200 0.25292 348 ft 15 kts 79°
2026-05-06 21:16 51.89269 0.25416 351 ft 14 kts 43°
2026-05-06 21:16 51.89328 0.25506 348 ft 9 kts 43°
2026-05-06 21:17 51.89338 0.25599 348 ft 8 kts 110°
2026-05-06 21:17 51.89293 0.25654 354 ft 7 kts 143°
2026-05-06 21:17 51.89270 0.25689 353 ft 2 kts 136°
2026-05-06 21:17 51.89267 0.25693 352 ft 0 kts 135°
2026-05-06 21:18 51.89267 0.25694 352 ft 0 kts 135°
2026-05-06 21:18 51.89251 0.25696 351 ft 5 kts 189°
2026-05-06 21:18 51.89224 0.25668 355 ft 4 kts 222°
2026-05-06 21:18 51.89215 0.25655 354 ft 0 kts 222°